EW4557 Weather Reports


Display with metric or nautical units.
time (UTC)temp
F
wind
direction
speed
MPH
gust
MPH
rain 1hr
in
rain 24hr
in
rain mn
in
humidity
%
barometer
mb
20260831133555 75 0 4.0 10.0 0.00 0.00 0.00 52 1020.0
20260831132555 74 0 2.0 9.0 0.00 0.00 0.00 53 1019.9
20260831130515 72 0 2.0 5.0 0.00 0.00 0.00 56 1019.4
20260831125555 72 0 1.0 4.0 0.00 0.00 0.00 55 1019.5
20260831124555 72 0 2.0 4.0 0.00 0.00 0.00 54 1019.4
20260831123515 72 0 0.0 3.0 0.00 0.00 0.00 53 1019.4
20260831122555 73 0 1.0 5.0 0.00 0.00 0.00 52 1019.4
20260831121635 73 0 3.0 9.0 0.00 0.00 0.00 52 1019.5
20260831115515 74 0 4.0 10.0 0.00 0.00 0.00 51 1019.3
20260831114555 74 0 2.0 6.0 0.00 0.00 0.00 50 1019.5
20260831113555 74 0 5.0 9.0 0.00 0.00 0.00 50 1019.6
20260831112515 75 0 5.0 12.0 0.00 0.00 0.00 48 1019.5
20260831111635 75 0 4.0 11.0 0.00 0.00 0.00 45 1019.4
20260831104515 72 0 1.0 3.0 0.00 0.00 0.00 46 1019.0
20260831103517 73 0 0.0 2.0 0.00 0.00 0.00 46 1018.8
20260831101557 75 0 1.0 3.0 0.00 0.00 0.00 44 1019.1
20260831100517 77 0 1.0 2.0 0.00 0.00 0.00 42 1019.3
20260831095516 77 0 0.0 2.0 0.00 0.00 0.00 42 1019.4
20260831094516 77 0.0 6.0 0.00 0.00 0.00 42 1019.3
20260831093637 76 0 1.0 4.0 0.00 0.00 0.00 44 1019.0
20260831092516 76 0 1.0 2.0 0.00 0.00 0.00 42 1018.9
20260831091557 77 0 1.0 2.0 0.00 0.00 0.00 41 1018.7
20260831090516 78 0 1.0 2.0 0.00 0.00 0.00 39 1018.6
20260831085557 79 0 1.0 3.0 0.00 0.00 0.00 38 1018.4
20260831084637 81 0 0.0 2.0 0.00 0.00 0.00 36 1018.8
20260831083516 82 0 0.0 1.0 0.00 0.00 0.00 36 1018.7
20260831081516 83 0 3.0 11.0 0.00 0.00 0.00 34 1018.9
20260831080556 84 0 4.0 17.0 0.00 0.00 0.00 34 1018.9
20260831075516 83 0 6.0 15.0 0.00 0.00 0.00 34 1018.7
20260831074516 83 0 4.0 12.0 0.00 0.00 0.00 34 1018.7
20260831073516 81 0 3.0 11.0 0.00 0.00 0.00 35 1018.6
20260831072516 82 0 1.0 4.0 0.00 0.00 0.00 35 1018.6
20260831071516 83 0.0 1.0 0.00 0.00 0.00 34 1018.6
20260831065516 84 0 2.0 8.0 0.00 0.00 0.00 34 1018.4
20260831064516 84 0 3.0 10.0 0.00 0.00 0.00 33 1018.5
20260831063556 85 0 3.0 10.0 0.00 0.00 0.00 33 1018.3
20260831062556 85 0 4.0 14.0 0.00 0.00 0.00 33 1018.2
20260831060516 85 0 3.0 11.0 0.00 0.00 0.00 34 1017.9
20260831054515 85 0 3.0 9.0 0.00 0.00 0.00 33 1017.7
20260831053515 86 0 3.0 12.0 0.00 0.00 0.00 32 1017.7
20260831052515 86 0 4.0 11.0 0.00 0.00 0.00 32 1017.6
20260831051635 87 0 3.0 10.0 0.00 0.00 0.00 31 1017.5
20260831050555 87 0 4.0 13.0 0.00 0.00 0.00 31 1017.5
20260831045635 88 0 4.0 10.0 0.00 0.00 0.00 30 1017.4
20260831044515 88 0 3.0 6.0 0.00 0.00 0.00 29 1017.5
20260831043515 88 0 2.0 6.0 0.00 0.00 0.00 29 1017.2
20260831042515 88 0 3.0 6.0 0.00 0.00 0.00 28 1017.0
20260831040555 88 0 1.0 3.0 0.00 0.00 0.00 27 1016.8
20260831035515 89 0 1.0 4.0 0.00 0.00 0.00 26 1016.6
20260831034515 90 0 3.0 6.0 0.00 0.00 0.00 25 1016.5
20260831033555 90 0 3.0 6.0 0.00 0.00 0.00 26 1016.2
20260831030515 82 0.0 0.0 0.00 0.00 0.00 30 1013.9
20260831025515 83 0.0 2.0 0.00 0.00 0.00 30 1013.8
20260831024515 85 0.0 0.0 0.00 0.00 0.00 30 1013.9
20260831023515 86 0.0 0.0 0.00 0.00 0.00 27 1013.8
20260831022635 87 0.0 1.0 0.00 0.00 0.00 27 1013.7
20260831021515 88 0.0 1.0 0.00 0.00 0.00 25 1013.7
20260831020515 89 0 0.0 2.0 0.00 0.00 0.00 24 1013.7
20260831015515 91 0 0.0 2.0 0.00 0.00 0.00 24 1013.6
20260831014515 92 0 0.0 2.0 0.00 0.00 0.00 24 1013.7
20260831013635 93 0 0.0 1.0 0.00 0.00 0.00 23 1013.7
20260831012515 94 0 1.0 4.0 0.00 0.00 0.00 22 1013.5
20260831011557 94 0 2.0 6.0 0.00 0.00 0.00 22 1013.4
20260831010637 95 0 3.0 10.0 0.00 0.00 0.00 21 1013.1
20260831005557 96 0 3.0 6.0 0.00 0.00 0.00 21 1013.1
20260831002516 98 0 3.0 5.0 0.00 0.00 0.00 20 1013.6
20260831001517 99 0 3.0 10.0 0.00 0.00 0.00 19 1013.7
20260831000516 99 0 3.0 9.0 0.00 0.00 0.00 20 1013.6
20260830234516 99 0 7.0 11.0 0.00 0.00 0.00 18 1014.0
20260830233516 100 0 6.0 11.0 0.00 0.00 0.00 18 1014.2
20260830232516 100 0 6.0 14.0 0.00 0.00 0.00 18 1014.3
20260830231516 100 0 5.0 14.0 0.00 0.00 0.00 18 1014.4
20260830230516 100 0 4.0 12.0 0.00 0.00 0.00 18 1014.6
20260830225556 100 0 4.0 12.0 0.00 0.00 0.00 18 1014.5
20260830224516 101 0 8.0 15.0 0.00 0.00 0.00 18 1014.8
20260830223516 99 0 3.0 13.0 0.00 0.00 0.00 19 1014.5
20260830222516 100 0 7.0 15.0 0.00 0.00 0.00 19 1015.0
20260830221556 101 0 10.0 18.0 0.00 0.00 0.00 18 1015.1
20260830220516 101 0 6.0 16.0 0.00 0.00 0.00 17 1015.2
20260830215556 101 0 9.0 16.0 0.00 0.00 0.00 18 1015.3
20260830213556 101 0 6.0 15.0 0.00 0.00 0.00 19 1015.5
20260830212636 101 0 10.0 18.0 0.00 0.00 0.00 18 1015.6
20260830210556 101 0 5.0 15.0 0.00 0.00 0.00 19 1015.7
20260830205516 100 0 5.0 17.0 0.00 0.00 0.00 20 1015.9
20260830203516 101 0 6.0 14.0 0.00 0.00 0.00 19 1016.6
20260830202516 101 0 5.0 17.0 0.00 0.00 0.00 19 1016.6
20260830201516 101 0 6.0 12.0 0.00 0.00 0.00 19 1016.7
20260830200516 100 0 4.0 13.0 0.00 0.00 0.00 20 1016.8
20260830195556 100 0 5.0 13.0 0.00 0.00 0.00 20 1016.8
20260830194516 99 0 3.0 13.0 0.00 0.00 0.00 22 1016.7
20260830193516 99 0 2.0 8.0 0.00 0.00 0.00 23 1016.9
20260830192556 98 0 5.0 13.0 0.00 0.00 0.00 22 1017.1
20260830191556 98 0 3.0 9.0 0.00 0.00 0.00 23 1017.2
20260830184516 97 0 3.0 11.0 0.00 0.00 0.00 24 1017.9
20260830183556 97 0 3.0 14.0 0.00 0.00 0.00 23 1018.1
20260830182516 96 0 4.0 10.0 0.00 0.00 0.00 25 1018.4
20260830181556 95 0 4.0 14.0 0.00 0.00 0.00 25 1018.4
20260830180556 95 0 7.0 14.0 0.00 0.00 0.00 26 1018.6
20260830175516 94 0 4.0 10.0 0.00 0.00 0.00 27 1018.6
20260830174516 94 0 5.0 14.0 0.00 0.00 0.00 27 1018.8
20260830173516 93 0 2.0 10.0 0.00 0.00 0.00 28 1018.9
20260830172556 93 0 4.0 15.0 0.00 0.00 0.00 28 1019.0
20260830170556 92 0 2.0 9.0 0.00 0.00 0.00 29 1019.2
20260830163556 89 0 3.0 8.0 0.00 0.00 0.00 31 1019.1
20260830161515 88 0 4.0 8.0 0.00 0.00 0.00 33 1018.9
20260830160636 88 0 3.0 8.0 0.00 0.00 0.00 34 1018.9
20260830155555 86 0 2.0 6.0 0.00 0.00 0.00 35 1018.9
20260830154555 86 0 3.0 9.0 0.00 0.00 0.00 36 1019.1
20260830153555 85 0 2.0 6.0 0.00 0.00 0.00 37 1018.7
20260830152515 85 0 3.0 6.0 0.00 0.00 0.00 37 1018.7
20260830151515 84 0 2.0 5.0 0.00 0.00 0.00 37 1018.6
20260830150555 83 0 1.0 5.0 0.00 0.00 0.00 39 1018.6
20260830145515 82 0 3.0 6.0 0.00 0.00 0.00 40 1018.4
20260830144515 81 0 2.0 5.0 0.00 0.00 0.00 40 1018.4
20260830143515 81 0 4.0 9.0 0.00 0.00 0.00 42 1018.2
20260830142555 80 0 3.0 6.0 0.00 0.00 0.00 41 1018.4
20260830141555 80 0 2.0 5.0 0.00 0.00 0.00 43 1018.4